[[{"header":{"parameterUnit":"m.s-1","parameterCategory":2,"la1":30.2991,"la2":30.254,"lo1":-89.0895,"lo2":-89.0444,"dy":0.0017,"dx":0.0017,"nx":28,"ny":28,"refTime":"2025-08-02T09:00:00:Z","depth":"0","parameterNumber":2,"parameterNumberName":"U-component_of_CURRENTS"},"data":[0,0,0,0,0,0,0,0,0,0,0,0,0,0,0,0,0,0,0,0,0,0,0,0,0,0,0,0,0,0,0,0,0,0,0,0,0,0,0,0,0,0,0,0,0,0,0,0,0,0,0,0,0,0,0,0,0,0,-0.0018,-0.0017,0,0.0022,0.0023,0.0023,0.0047,0.0048,0.0048,0.0049,-0.0018,-0.002,-0.0023,0,0,0,0,0,0,0,0,0,0,0,0,0,-0.0103,-0.0101,-0.0018,-0.0017,-0.0016,0.0022,0.0023,0.0023,0.0047,0.0048,0.0049,0.0049,-0.0018,-0.002,-0.0023,0,0,0,0,0,0,0,0,0,0,0,0,0,-0.0068,-0.0101,-0.0018,0.0003,0.0006,0.0022,0.0023,0.0023,0.0047,0.0048,0.0049,0.0049,-0.0017,-0.002,-0.0023,-0.0058,0,0,-0.0033,-0.0035,0,0,0,0,0,0,0,0,-0.007,-0.0065,-0.0001,0.0002,0.0005,0.0034,-0.0031,-0.0008,0.0047,0.0028,0.0049,0.005,-0.0009,-0.0013,-0.0011,-0.0061,-0.0064,-0.0034,-0.0036,-0.0037,-0.0038,0,0,0,0,0,0,0,-0.0072,-0.0067,-0.0006,0.0,0.0004,0.0002,0.0007,-0.0027,-0.0,0.0029,0.0032,0.0042,-0.0009,-0.0007,-0.0012,-0.0065,-0.0034,-0.0037,-0.0039,-0.004,-0.0141,-0.0142,0,0,0,0,0,0,-0.0069,-0.0069,-0.0007,-0.0004,-0.0027,0.0003,0.0009,0.0021,0.0003,0.0003,0.0042,0.0044,-0.0002,-0.0008,-0.0015,-0.0045,-0.0037,-0.004,-0.0042,-0.014,-0.0141,-0.0142,0,0,0,0,0,0,-0.0071,-0.0064,-0.0009,-0.0033,-0.0026,0.0004,0.0017,0.0021,0.002,0.0014,0.0011,0.0037,-0.0002,-0.001,-0.0043,-0.0048,-0.0042,-0.0045,-0.014,-0.0141,-0.0142,-0.0115,0,0,0,0,0,0,-0.0073,-0.0065,-0.0066,-0.0033,-0.0024,-0.0004,0.0017,0.0022,0.0027,0.003,0.0008,0.0004,-0.0002,-0.0038,-0.0046,-0.0053,-0.0047,-0.0139,-0.014,-0.0141,-0.0115,-0.0115,-0.0115,0,0,0,0,0,-0.0077,-0.0077,-0.0066,-0.0059,-0.0022,-0.0004,-0.0001,0.002,0.0026,0.0021,0.0012,0.0004,-0.0052,-0.0041,-0.0051,-0.0059,-0.0138,-0.014,-0.0141,-0.0115,-0.0115,-0.0115,0,0,0,0,0,0,-0.0127,-0.0073,-0.006,-0.0048,-0.003,0.0001,-0.0,0.0012,0.0002,-0.0,-0.0009,-0.0015,-0.0046,-0.0063,-0.005,-0.0093,-0.0096,-0.0099,-0.0073,-0.0073,-0.0073,0.0013,-0.005,0,0,0,0,0,-0.0135,-0.0113,-0.0075,-0.0069,-0.0059,-0.0034,-0.0028,-0.0012,-0.0008,-0.001,-0.002,-0.0039,-0.006,-0.0074,-0.0098,-0.0127,0.0003,-0.0138,-0.0138,-0.0138,-0.0076,0.008,0.0103,-0.0147,-0.0147,-0.0147,0,0,-0.0151,-0.0121,-0.0109,-0.0077,-0.0062,-0.0053,-0.003,-0.002,-0.0012,-0.0021,-0.0029,-0.0046,-0.007,-0.0092,-0.0108,-0.0105,0.0012,-0.014,-0.0139,-0.0075,0.0082,0.0108,0.013,-0.0148,-0.0148,-0.0148,0,0,-0.0178,-0.0149,-0.0144,-0.0126,-0.0098,-0.0076,-0.0075,-0.0048,-0.0036,-0.005,-0.0047,-0.0056,-0.0104,-0.0096,-0.0106,-0.0125,0.0002,-0.015,-0.0074,0.0075,0.0099,0.0122,0.0387,0.0433,-0.0145,-0.0145,-0.0145,0,-0.0207,-0.0176,-0.0145,-0.0141,-0.0104,-0.0088,-0.0066,-0.007,-0.0058,0.0003,-0.0055,-0.0018,-0.0097,-0.0038,-0.007,-0.0121,0.0045,-0.0073,0.0084,0.0109,0.0132,0.0397,0.0448,-0.0144,-0.0144,-0.0144,-0.0144,0,-0.023,-0.02,-0.0197,-0.0167,-0.0138,-0.0116,-0.0089,-0.006,-0.0046,-0.0005,0.006,-0.0003,0.0073,-0.0014,-0.0069,0.0054,0.0152,0.0068,0.0102,0.0161,0.0434,0.0487,-0.0142,-0.0143,-0.0143,-0.0143,0,0,-0.0284,-0.0219,-0.0216,-0.0132,-0.0127,-0.0058,-0.0061,0.0035,0.0174,0.011,0.0303,0.0154,0.0224,0.0218,0.0175,0.0225,0.0466,0.0217,0.0224,0.0518,0.0943,0.1061,0.1132,0.0435,0.0443,0.0448,0.1096,0,-0.0298,-0.0226,-0.022,-0.0116,-0.0038,0.0004,0.0066,0.0152,0.0227,0.0406,0.0371,0.0496,0.0286,0.0376,0.0391,0.0468,0.0598,0.0309,0.0811,0.083,0.0956,0.1191,0.1196,0.1776,0.1148,0.1156,0.1163,0,-0.0314,-0.0226,-0.0118,0.0081,0.012,0.0183,0.0438,0.049,0.0675,0.0749,0.0859,0.0893,0.0988,0.0783,0.1014,0.0867,0.0933,0.0947,0.0972,0.112,0.1045,0.1598,0.1897,0.1786,0.1245,0.1238,0.1232,0,-0.0221,-0.0135,0.0009,0.0053,0.0234,0.035,0.0454,0.064,0.0773,0.1037,0.119,0.1329,0.1448,0.1519,0.1497,0.1333,0.1793,0.1583,0.1785,0.1799,0.1924,0.1936,0.2206,0.1803,0.1801,0.1799,0.1797,0,-0.0165,-0.0032,0.01,0.0217,0.0478,0.0533,0.0827,0.0958,0.1166,0.1362,0.1424,0.1597,0.1622,0.1825,0.1781,0.2029,0.2065,0.1932,0.1995,0.1936,0.194,0.1937,0.1864,0.1824,0.1818,0.1814,0.1809,0,0.0003,0.0025,0.0269,0.0484,0.0554,0.0791,0.1019,0.1213,0.1387,0.1654,0.1744,0.1927,0.2198,0.2286,0.2486,0.2446,0.2614,0.2675,0.2667,0.2714,0.2732,0.266,0.2969,0.2966,0.3092,0.31,0.3106,0,0.0124,0.0262,0.0521,0.0658,0.0783,0.1049,0.1197,0.1348,0.1487,0.1794,0.1912,0.2271,0.2437,0.2914,0.3011,0.3262,0.2964,0.3381,0.2983,0.2874,0.2841,0.2552,0.2501,0.3214,0.322,0.3226,0.323,0,0.0467,0.0552,0.0761,0.0966,0.1148,0.1317,0.1498,0.1605,0.1743,0.1923,0.2133,0.2309,0.2796,0.3042,0.3438,0.3527,0.329,0.3495,0.3374,0.3017,0.274,0.2718,0.2705,0.3276,0.3272,0.3268,0.3266,0.3264,0.0799,0.0965,0.1146,0.1344,0.1463,0.1515,0.1621,0.171,0.1868,0.2043,0.22,0.2436,0.288,0.3417,0.3554,0.3832,0.3633,0.3695,0.3665,0.3413,0.3253,0.341,0.3993,0.3993,0.3993,0.3992,0.3992,0,0.1215,0.1276,0.1473,0.1625,0.167,0.1671,0.1753,0.1782,0.186,0.2053,0.2205,0.2607,0.3016,0.3384,0.3841,0.3894,0.3699,0.3893,0.344,0.3413,0.3609,0.344,0.3937,0.3937,0.3937,0.3937,0.3937,0.3937,0.1459,0.165,0.1642,0.1751,0.1776,0.1776,0.1771,0.1796,0.1889,0.2067,0.2244,0.2413,0.286,0.3452,0.3757,0.3811,0.3587,0.3592,0.3524,0.3564,0.3534,0.3505,0.3322,0.3786,0.3786,0.3161,0.3158,0.3155]},{"header":{"parameterUnit":"m.s-1","parameterCategory":2,"la1":30.2991,"la2":30.254,"lo1":-89.0895,"lo2":-89.0444,"dy":0.0017,"dx":0.0017,"nx":28,"ny":28,"refTime":"2025-08-02T09:00:00:Z","depth":"0","parameterNumber":3,"parameterNumberName":"V-component_of_CURRENTS"},"data":[0,0,0,0,0,0,0,0,0,0,0,0,0,0,0,0,0,0,0,0,0,0,0,0,0,0,0,0,0,0,0,0,0,0,0,0,0,0,0,0,0,0,0,0,0,0,0,0,0,0,0,0,0,0,0,0,0,0,-0.0252,-0.0252,0,-0.0288,-0.0289,-0.0289,-0.0272,-0.0271,-0.027,-0.0269,-0.0321,-0.0323,-0.0325,0,0,0,0,0,0,0,0,0,0,0,0,0,-0.0217,-0.0217,-0.0251,-0.0252,-0.0253,-0.0288,-0.0289,-0.0289,-0.0272,-0.0271,-0.027,-0.0269,-0.032,-0.0323,-0.0326,0,0,0,0,0,0,0,0,0,0,0,0,0,-0.0239,-0.0217,-0.0251,-0.0249,-0.0249,-0.0288,-0.0289,-0.0289,-0.0272,-0.0271,-0.0269,-0.0268,-0.032,-0.0323,-0.0326,-0.0371,0,0,-0.0336,-0.0337,0,0,0,0,0,0,0,0,-0.0238,-0.0241,-0.0249,-0.0249,-0.025,-0.0275,-0.0296,-0.0318,-0.0272,-0.0262,-0.0269,-0.0268,-0.0309,-0.0313,-0.0321,-0.0373,-0.0376,-0.0336,-0.0338,-0.0339,-0.034,0,0,0,0,0,0,0,-0.0236,-0.0239,-0.0265,-0.025,-0.025,-0.0264,-0.0265,-0.03,-0.0292,-0.0263,-0.0262,-0.0268,-0.0309,-0.0318,-0.0322,-0.0376,-0.0336,-0.0339,-0.0341,-0.0342,-0.0481,-0.0482,0,0,0,0,0,0,-0.0233,-0.0238,-0.0264,-0.0266,-0.0242,-0.0265,-0.0266,-0.0267,-0.0291,-0.0293,-0.0269,-0.0267,-0.0313,-0.0318,-0.0324,-0.0357,-0.0339,-0.0342,-0.0344,-0.0479,-0.0481,-0.0483,0,0,0,0,0,0,-0.0232,-0.0235,-0.0262,-0.0254,-0.0258,-0.0267,-0.0268,-0.0269,-0.0281,-0.0296,-0.0298,-0.0281,-0.0312,-0.0319,-0.0367,-0.036,-0.0344,-0.0347,-0.0477,-0.048,-0.0482,-0.0439,0,0,0,0,0,0,-0.0231,-0.0234,-0.0241,-0.0253,-0.0259,-0.0292,-0.0269,-0.027,-0.0287,-0.0285,-0.0307,-0.031,-0.0311,-0.0362,-0.037,-0.0364,-0.0349,-0.0475,-0.0478,-0.0481,-0.0438,-0.0439,-0.0441,0,0,0,0,0,-0.0229,-0.0254,-0.0241,-0.0245,-0.0265,-0.0294,-0.0298,-0.0299,-0.0289,-0.0303,-0.032,-0.0309,-0.0388,-0.0366,-0.0375,-0.037,-0.0473,-0.0477,-0.0481,-0.0437,-0.0439,-0.0441,0,0,0,0,0,0,-0.0251,-0.0255,-0.0241,-0.0266,-0.0277,-0.0291,-0.0317,-0.0308,-0.0333,-0.0338,-0.0338,-0.0344,-0.0382,-0.04,-0.0376,-0.0426,-0.0427,-0.0433,-0.0391,-0.0393,-0.0394,-0.0269,-0.0352,0,0,0,0,0,-0.0256,-0.0275,-0.0273,-0.0299,-0.0306,-0.031,-0.0324,-0.0322,-0.0343,-0.0351,-0.0362,-0.0386,-0.0408,-0.0418,-0.0451,-0.0483,-0.0436,-0.0488,-0.049,-0.049,-0.0399,-0.0374,-0.0362,-0.0496,-0.0496,-0.0496,0,0,-0.0275,-0.028,-0.0292,-0.0305,-0.0318,-0.0305,-0.0316,-0.0348,-0.0321,-0.0357,-0.0354,-0.04,-0.0423,-0.0451,-0.0469,-0.046,-0.0438,-0.0495,-0.0495,-0.0401,-0.0377,-0.0362,-0.035,-0.0498,-0.0498,-0.0497,0,0,-0.0308,-0.0325,-0.0334,-0.0334,-0.0348,-0.0341,-0.0347,-0.0361,-0.0356,-0.0376,-0.0385,-0.0416,-0.0468,-0.0457,-0.0461,-0.0496,-0.0455,-0.0534,-0.0422,-0.0402,-0.0388,-0.0375,-0.0318,-0.03,-0.0523,-0.0523,-0.0523,0,-0.0328,-0.0298,-0.0347,-0.0337,-0.0294,-0.0346,-0.0293,-0.0325,-0.0348,-0.0292,-0.0373,-0.0376,-0.0448,-0.0387,-0.0415,-0.0487,-0.0452,-0.0409,-0.0395,-0.0381,-0.0368,-0.0313,-0.0293,-0.0522,-0.0522,-0.0522,-0.0522,0,-0.0338,-0.0298,-0.0312,-0.028,-0.0268,-0.0248,-0.0253,-0.0245,-0.0253,-0.0237,-0.0211,-0.0315,-0.0266,-0.0354,-0.0399,-0.0336,-0.0335,-0.0406,-0.0369,-0.035,-0.0296,-0.0277,-0.0519,-0.052,-0.052,-0.0521,0,0,-0.0374,-0.0314,-0.0305,-0.0195,-0.02,-0.0153,-0.0135,-0.0045,0.0073,-0.0046,0.011,-0.0035,-0.0049,-0.0055,-0.0138,-0.0162,-0.0118,-0.0236,-0.0236,-0.0136,-0.0024,0.0003,0.0027,-0.0185,-0.0182,-0.0179,-0.0027,0,-0.0323,-0.0208,-0.0213,-0.0058,0.0045,0.0051,0.0128,0.0181,0.0199,0.03,0.0195,0.0257,0.005,0.0085,0.0023,-0.0068,-0.0059,-0.0147,-0.0088,-0.0083,-0.0028,0.0053,0.0114,0.0258,-0.0008,-0.0004,-0.0002,0,-0.0277,-0.0172,0.0009,0.0229,0.0273,0.0348,0.0582,0.0632,0.0708,0.0725,0.0736,0.0659,0.0626,0.0422,0.0328,0.0285,0.0176,0.0065,0.0067,0.0121,-0.0017,0.0195,0.0304,0.0077,0.0029,0.0026,0.0024,0,-0.0124,0.0015,0.022,0.0276,0.0457,0.0587,0.0686,0.0803,0.0919,0.1024,0.1106,0.1044,0.1035,0.087,0.0597,0.0493,0.05,0.0325,0.0269,0.027,0.036,0.0363,0.0311,0.0327,0.0326,0.0326,0.0325,0,0.0018,0.0191,0.033,0.0464,0.0752,0.08,0.109,0.1175,0.1309,0.1458,0.1357,0.1429,0.114,0.106,0.079,0.0628,0.0664,0.0377,0.0336,0.0368,0.0369,0.0204,0.0089,0.0331,0.033,0.0329,0.0328,0,0.0222,0.0274,0.0552,0.0776,0.0849,0.1083,0.1317,0.1502,0.1601,0.1786,0.1824,0.1771,0.1668,0.1407,0.1173,0.0917,0.0641,0.067,0.0749,0.0715,0.0404,0.029,0.0289,0.0195,0.0655,0.0657,0.0659,0,0.0368,0.053,0.0799,0.0941,0.1064,0.1344,0.1516,0.1657,0.18,0.1954,0.2037,0.2039,0.1991,0.1733,0.1376,0.1082,0.0782,0.0918,0.0707,0.0486,0.0327,0.0176,0.0083,0.0831,0.0834,0.0836,0.0838,0,0.0704,0.0781,0.0987,0.1224,0.1431,0.1653,0.1871,0.2,0.2121,0.2237,0.2311,0.2303,0.214,0.1876,0.1559,0.1303,0.0795,0.0956,0.071,0.0501,0.0361,0.0217,0.0634,0.0859,0.0857,0.0856,0.0854,0.0854,0.0966,0.1139,0.1317,0.1542,0.1722,0.1869,0.2004,0.2147,0.2313,0.2394,0.2437,0.2437,0.2233,0.181,0.1489,0.1016,0.093,0.0762,0.0661,0.0539,0.0405,0.0901,0.1064,0.1063,0.1062,0.1062,0.1061,0,0.1247,0.1365,0.1593,0.1791,0.1919,0.1971,0.2157,0.2212,0.2292,0.2433,0.2467,0.2467,0.2085,0.1709,0.1153,0.0754,0.0535,0.0525,0.0303,0.0228,0.0678,0.0635,0.0736,0.0736,0.0736,0.0736,0.0736,0.0737,0.1416,0.162,0.1667,0.1874,0.197,0.2074,0.2124,0.2184,0.2274,0.2384,0.2474,0.2562,0.2432,0.1373,0.0589,0.039,0.0001,0.001,-0.0216,0.0044,0.0055,0.0065,-0.0009,-0.0045,-0.0046,-0.0656,-0.0661,-0.0665]}],[{"header":{"parameterUnit":"m.s-1","parameterCategory":2,"la1":30.2991,"la2":30.254,"lo1":-89.0895,"lo2":-89.0444,"dy":0.0017,"dx":0.0017,"nx":28,"ny":28,"refTime":"2025-08-02T09:00:00:Z","depth":"2","parameterNumber":2,"parameterNumberName":"U-component_of_CURRENTS"},"data":[0,0,0,0,0,0,0,0,0,0,0,0,0,0,0,0,0,0,0,0,0,0,0,0,0,0,0,0,0,0,0,0,0,0,0,0,0,0,0,0,0,0,0,0,0,0,0,0,0,0,0,0,0,0,0,0,0,0,0.0037,0.0037,0,0.0081,0.0081,0.0082,0.0084,0.0083,0.0082,0.0081,0.0179,0.0182,0.0186,0,0,0,0,0,0,0,0,0,0,0,0,0,0.0031,0.0031,0.0037,0.0037,0.0037,0.008,0.0081,0.0082,0.0084,0.0083,0.0082,0.0081,0.0178,0.0182,0.0186,0,0,0,0,0,0,0,0,0,0,0,0,0,0.0054,0.0031,0.0037,0.004,0.004,0.008,0.0081,0.0083,0.0084,0.0083,0.0081,0.008,0.0176,0.0182,0.0187,0.0246,0,0,0.0203,0.0205,0,0,0,0,0,0,0,0,0.0053,0.0055,0.0039,0.004,0.004,0.0071,0.0115,0.0139,0.0084,0.0072,0.0081,0.0079,0.0146,0.0154,0.0171,0.0251,0.0255,0.0203,0.0206,0.0208,0.021,0,0,0,0,0,0,0,0.0051,0.0053,0.0058,0.0039,0.004,0.0065,0.0067,0.012,0.0121,0.0073,0.0072,0.0071,0.0147,0.0165,0.0173,0.0257,0.0203,0.0207,0.0211,0.0213,0.0486,0.049,0,0,0,0,0,0,0.0035,0.0052,0.0057,0.0059,0.0038,0.0066,0.0068,0.0066,0.0119,0.0124,0.0072,0.007,0.0157,0.0167,0.0176,0.0328,0.0208,0.0213,0.0216,0.0482,0.0487,0.0492,0,0,0,0,0,0,0.0034,0.0035,0.0055,0.0053,0.0057,0.0066,0.0066,0.0068,0.0091,0.0117,0.0123,0.0092,0.0157,0.0169,0.0248,0.0329,0.0216,0.022,0.0477,0.0484,0.049,0.0583,0,0,0,0,0,0,0.0034,0.0035,0.0035,0.0052,0.0056,0.0095,0.0066,0.007,0.009,0.0089,0.0137,0.0143,0.0156,0.0241,0.0254,0.0334,0.0224,0.0472,0.048,0.0488,0.0574,0.0591,0.0606,0,0,0,0,0,0.0034,0.004,0.0034,0.0035,0.0053,0.0097,0.0103,0.0108,0.0092,0.012,0.0155,0.0142,0.03,0.0248,0.0262,0.0346,0.0468,0.0478,0.0487,0.0567,0.0588,0.0605,0,0,0,0,0,0,0.0035,0.0041,0.0035,0.0041,0.0072,0.0095,0.0113,0.0118,0.0167,0.0165,0.0185,0.0198,0.0302,0.0315,0.0257,0.0452,0.0388,0.04,0.0444,0.0464,0.0479,0.0462,0.0229,0,0,0,0,0,0.0035,0.0042,0.006,0.0068,0.0082,0.0101,0.0117,0.0127,0.0164,0.0182,0.0219,0.0275,0.0355,0.0395,0.0455,0.0555,0.0554,0.0625,0.064,0.0653,0.0653,0.0716,0.0736,0.0523,0.0522,0.0522,0,0,0.0032,0.004,0.0041,0.007,0.0088,0.0147,0.011,0.0144,0.0211,0.0189,0.0292,0.0327,0.0393,0.0508,0.0558,0.0527,0.072,0.0665,0.0675,0.0668,0.0727,0.0748,0.0765,0.0529,0.0528,0.0527,0,0,0.006,0.0046,0.0076,0.0112,0.0147,0.0174,0.0188,0.023,0.0265,0.0362,0.0375,0.0452,0.0563,0.0629,0.0678,0.082,0.0797,0.085,0.0921,0.0983,0.0999,0.1014,0.1054,0.1071,0.0862,0.0862,0.0862,0,0.0058,0.0106,0.0096,0.0153,0.0193,0.0195,0.0266,0.0314,0.0383,0.0425,0.041,0.0583,0.063,0.078,0.0834,0.0856,0.0868,0.0837,0.0999,0.1014,0.1027,0.1063,0.1081,0.0868,0.0867,0.0866,0.0866,0,0.0131,0.0174,0.0199,0.0275,0.0318,0.0377,0.0435,0.0489,0.0524,0.0569,0.0699,0.0759,0.0851,0.0904,0.0916,0.1056,0.1027,0.1003,0.0937,0.1053,0.1086,0.1102,0.0876,0.0874,0.0872,0.0871,0,0,0.0141,0.023,0.0249,0.0298,0.0391,0.0431,0.0545,0.0647,0.0702,0.0788,0.0879,0.1029,0.1016,0.107,0.1097,0.1162,0.1278,0.1125,0.1126,0.114,0.14,0.1303,0.1311,0.1271,0.1275,0.1277,0.1387,0,0.0217,0.033,0.0369,0.0495,0.0561,0.0603,0.0699,0.0781,0.0845,0.0927,0.1006,0.1097,0.1097,0.1129,0.1203,0.125,0.1325,0.1249,0.1306,0.1307,0.1187,0.1329,0.122,0.1302,0.1403,0.1406,0.1408,0,0.0313,0.0371,0.0495,0.0594,0.0623,0.0694,0.0811,0.0895,0.1004,0.1045,0.1134,0.1167,0.1296,0.1255,0.1407,0.1353,0.1391,0.1422,0.1426,0.1308,0.1242,0.1204,0.1327,0.1435,0.1433,0.1431,0.1429,0,0.0351,0.0473,0.0567,0.0608,0.0715,0.0768,0.0825,0.0929,0.0984,0.1104,0.1136,0.1274,0.1323,0.1414,0.1463,0.1448,0.1589,0.1576,0.1535,0.1527,0.1431,0.1409,0.1692,0.1691,0.1691,0.1691,0.1691,0,0.0441,0.0518,0.0577,0.063,0.0709,0.0779,0.0864,0.093,0.1018,0.1081,0.1175,0.1232,0.136,0.1438,0.1497,0.1554,0.1622,0.1572,0.1563,0.1463,0.1443,0.1543,0.1524,0.1695,0.1694,0.1693,0.1693,0,0.0486,0.054,0.0624,0.0708,0.0729,0.0777,0.0849,0.0899,0.0983,0.1063,0.1099,0.1221,0.1327,0.1425,0.1562,0.1574,0.1651,0.1648,0.1504,0.1476,0.1548,0.1533,0.1659,0.1657,0.1655,0.1653,0.1652,0,0.0523,0.0573,0.0639,0.0657,0.0692,0.0753,0.0787,0.0873,0.0916,0.1046,0.1077,0.1199,0.1273,0.1418,0.1473,0.1568,0.1613,0.1504,0.1468,0.1573,0.1552,0.154,0.1529,0.1397,0.1393,0.1391,0.1389,0,0.0565,0.0577,0.062,0.0645,0.0675,0.0716,0.0769,0.0793,0.0897,0.0965,0.1062,0.1134,0.1247,0.1301,0.1377,0.1407,0.1482,0.1449,0.1637,0.1393,0.1327,0.1305,0.1303,0.1365,0.1367,0.1369,0.137,0.1371,0.056,0.0573,0.0599,0.062,0.0652,0.068,0.071,0.0764,0.0828,0.0938,0.1013,0.1103,0.1147,0.1225,0.1233,0.1249,0.1338,0.1326,0.1335,0.1347,0.1269,0.12,0.12,0.1201,0.1202,0.1203,0.1204,0,0.0541,0.0556,0.0569,0.0595,0.0616,0.0652,0.0699,0.0724,0.0789,0.0888,0.0984,0.0959,0.1011,0.1068,0.1064,0.1077,0.107,0.1047,0.1054,0.1077,0.1098,0.1007,0.0869,0.0868,0.0867,0.0867,0,0,0.0533,0.0527,0.0526,0.0542,0.0578,0.0621,0.065,0.0688,0.0746,0.0795,0.0855,0.0982,0.1025,0.0941,0.0935,0.0916,0.0982,0.0873,0.1139,0.1168,0.1187,0.1252,0.1137,0,0,0,0,0]},{"header":{"parameterUnit":"m.s-1","parameterCategory":2,"la1":30.2991,"la2":30.254,"lo1":-89.0895,"lo2":-89.0444,"dy":0.0017,"dx":0.0017,"nx":28,"ny":28,"refTime":"2025-08-02T09:00:00:Z","depth":"2","parameterNumber":3,"parameterNumberName":"V-component_of_CURRENTS"},"data":[0,0,0,0,0,0,0,0,0,0,0,0,0,0,0,0,0,0,0,0,0,0,0,0,0,0,0,0,0,0,0,0,0,0,0,0,0,0,0,0,0,0,0,0,0,0,0,0,0,0,0,0,0,0,0,0,0,0,-0.0551,-0.055,0,-0.0433,-0.0432,-0.043,-0.0348,-0.0347,-0.0347,-0.0346,-0.0233,-0.023,-0.0228,0,0,0,0,0,0,0,0,0,0,0,0,0,-0.0648,-0.0647,-0.0552,-0.055,-0.0548,-0.0433,-0.0432,-0.043,-0.0348,-0.0347,-0.0347,-0.0346,-0.0233,-0.0231,-0.0228,0,0,0,0,0,0,0,0,0,0,0,0,0,-0.0577,-0.0647,-0.0552,-0.0493,-0.0487,-0.0434,-0.0432,-0.043,-0.0348,-0.0347,-0.0346,-0.0345,-0.0234,-0.0231,-0.0227,-0.0227,0,0,-0.0216,-0.0215,0,0,0,0,0,0,0,0,-0.0581,-0.0574,-0.0503,-0.0497,-0.049,-0.0403,-0.0424,-0.0362,-0.0349,-0.0402,-0.0346,-0.0345,-0.029,-0.0282,-0.0263,-0.0221,-0.0217,-0.0216,-0.0214,-0.0213,-0.0212,0,0,0,0,0,0,0,-0.0586,-0.0578,-0.0506,-0.0502,-0.0493,-0.0452,-0.0442,-0.0412,-0.0354,-0.0397,-0.0391,-0.0376,-0.0287,-0.0267,-0.026,-0.0215,-0.0216,-0.0213,-0.0211,-0.021,-0.0106,-0.0106,0,0,0,0,0,0,-0.0603,-0.0583,-0.0509,-0.0502,-0.0533,-0.0452,-0.044,-0.0433,-0.0354,-0.0341,-0.0377,-0.0373,-0.0274,-0.0264,-0.0256,-0.0197,-0.0213,-0.0209,-0.0207,-0.0107,-0.0106,-0.0106,0,0,0,0,0,0,-0.0606,-0.0598,-0.0514,-0.0538,-0.0525,-0.0452,-0.0444,-0.0431,-0.0404,-0.0339,-0.0326,-0.0362,-0.0272,-0.0261,-0.0231,-0.0194,-0.0208,-0.0204,-0.0108,-0.0107,-0.0106,-0.0114,0,0,0,0,0,0,-0.0609,-0.06,-0.0594,-0.054,-0.0524,-0.0476,-0.0445,-0.043,-0.0396,-0.0389,-0.0322,-0.0311,-0.0271,-0.0237,-0.0228,-0.0189,-0.0202,-0.0109,-0.0107,-0.0106,-0.0114,-0.0113,-0.0112,0,0,0,0,0,-0.0613,-0.0595,-0.0594,-0.0585,-0.052,-0.0475,-0.0463,-0.0408,-0.0397,-0.0381,-0.0348,-0.0312,-0.0222,-0.0235,-0.0224,-0.0183,-0.0109,-0.0108,-0.0106,-0.0115,-0.0113,-0.0112,0,0,0,0,0,0,-0.0615,-0.0584,-0.0581,-0.0551,-0.052,-0.0461,-0.0429,-0.0414,-0.0375,-0.0366,-0.032,-0.0306,-0.0258,-0.0233,-0.0248,-0.0151,-0.0153,-0.015,-0.0163,-0.0162,-0.0161,-0.0157,-0.0199,0,0,0,0,0,-0.0622,-0.0608,-0.0576,-0.055,-0.0536,-0.0493,-0.0467,-0.044,-0.04,-0.0381,-0.0341,-0.0294,-0.0245,-0.0217,-0.0174,-0.0137,-0.0156,-0.0099,-0.0098,-0.0097,-0.0087,-0.0114,-0.0116,-0.0101,-0.0101,-0.0101,0,0,-0.0612,-0.0595,-0.0584,-0.0551,-0.0519,-0.0479,-0.0473,-0.0433,-0.0391,-0.0377,-0.0314,-0.0294,-0.0237,-0.0183,-0.0158,-0.0156,-0.0116,-0.0096,-0.0095,-0.0085,-0.0113,-0.0115,-0.0116,-0.01,-0.01,-0.01,0,0,-0.0579,-0.0576,-0.0552,-0.0531,-0.0494,-0.0466,-0.0461,-0.0417,-0.0386,-0.0346,-0.0316,-0.0292,-0.0214,-0.0173,-0.0138,-0.0113,-0.0114,-0.0086,-0.007,-0.0097,-0.0099,-0.01,-0.0153,-0.0159,-0.0081,-0.0081,-0.0081,0,-0.0565,-0.0537,-0.0535,-0.0503,-0.0472,-0.0462,-0.0421,-0.0387,-0.034,-0.0321,-0.032,-0.0237,-0.0202,-0.0134,-0.0117,-0.0108,-0.0137,-0.008,-0.0098,-0.01,-0.0101,-0.0154,-0.0161,-0.0081,-0.0081,-0.0081,-0.0081,0,-0.0515,-0.049,-0.0469,-0.0431,-0.0403,-0.0367,-0.0332,-0.0308,-0.0287,-0.0261,-0.0215,-0.0192,-0.0141,-0.0124,-0.0105,-0.0082,-0.0106,-0.0102,-0.0106,-0.0104,-0.0159,-0.0167,-0.0081,-0.0081,-0.0081,-0.0081,0,0,-0.0485,-0.0444,-0.0435,-0.0414,-0.0366,-0.0339,-0.0279,-0.023,-0.0204,-0.0174,-0.0145,-0.0078,-0.0094,-0.0059,-0.0049,-0.007,-0.012,-0.0088,-0.0089,-0.015,-0.0205,-0.0258,-0.0271,-0.0126,-0.0126,-0.0127,-0.025,0,-0.0441,-0.0385,-0.0368,-0.0302,-0.027,-0.0249,-0.0198,-0.0161,-0.0138,-0.0116,-0.0101,-0.0067,-0.0056,-0.005,-0.0065,-0.01,-0.0134,-0.0088,-0.0189,-0.0192,-0.0247,-0.0279,-0.0212,-0.0318,-0.0257,-0.0258,-0.0259,0,-0.0396,-0.0366,-0.0306,-0.0256,-0.024,-0.0199,-0.0146,-0.0103,-0.0071,-0.006,-0.0038,-0.0037,-0.0032,-0.0048,-0.0104,-0.0078,-0.0135,-0.0181,-0.0187,-0.0232,-0.0257,-0.0304,-0.0334,-0.0271,-0.027,-0.0269,-0.0269,0,-0.0388,-0.032,-0.0278,-0.0258,-0.02,-0.0168,-0.013,-0.0088,-0.0066,-0.0035,-0.0043,-0.0025,-0.0044,-0.0087,-0.0162,-0.0135,-0.0274,-0.0247,-0.0354,-0.036,-0.0318,-0.0319,-0.031,-0.031,-0.031,-0.0309,-0.0309,0,-0.0355,-0.0316,-0.0274,-0.0252,-0.0205,-0.0162,-0.0118,-0.0083,-0.0057,-0.0039,-0.0021,-0.0032,-0.0061,-0.0134,-0.0184,-0.0305,-0.0289,-0.0363,-0.0393,-0.0322,-0.0322,-0.0279,-0.0274,-0.0314,-0.0313,-0.0312,-0.0311,0,-0.035,-0.0322,-0.0278,-0.0222,-0.0204,-0.0172,-0.0118,-0.0096,-0.0068,-0.0054,-0.0046,-0.0062,-0.0138,-0.0207,-0.031,-0.0356,-0.0451,-0.0506,-0.0437,-0.0456,-0.0512,-0.0505,-0.0613,-0.0616,-0.0618,-0.062,-0.0622,0,-0.0336,-0.0317,-0.0273,-0.0255,-0.0227,-0.0179,-0.0151,-0.0104,-0.0085,-0.0072,-0.0077,-0.0144,-0.0167,-0.0355,-0.0433,-0.0548,-0.0557,-0.0605,-0.0526,-0.0524,-0.0542,-0.0532,-0.0522,-0.0485,-0.0485,-0.0486,-0.0486,0,-0.0312,-0.0309,-0.0286,-0.0259,-0.0229,-0.0191,-0.0145,-0.0134,-0.0084,-0.0063,-0.0055,-0.0071,-0.0227,-0.0307,-0.0498,-0.056,-0.0567,-0.0619,-0.0639,-0.0421,-0.0414,-0.0428,-0.0421,-0.0489,-0.0489,-0.0489,-0.0488,-0.0488,-0.0304,-0.03,-0.0283,-0.0256,-0.0222,-0.0182,-0.0131,-0.0088,-0.004,0.0038,-0.0019,0.0002,-0.0158,-0.0331,-0.0478,-0.0607,-0.0611,-0.0632,-0.0626,-0.062,-0.0586,-0.0583,-0.0686,-0.0687,-0.0687,-0.0688,-0.0688,0,-0.029,-0.0285,-0.027,-0.0236,-0.0189,-0.0162,-0.0106,-0.0042,0.0049,0.0096,0.0146,0.0045,-0.0078,-0.0251,-0.0423,-0.0574,-0.0525,-0.0623,-0.0511,-0.0509,-0.0507,-0.0461,-0.0531,-0.0531,-0.0531,-0.0531,0,0,-0.0289,-0.0282,-0.0287,-0.021,-0.0156,-0.0061,-0.0006,0.0081,0.0139,0.0218,0.0262,0.0238,-0.001,-0.011,-0.0312,-0.0409,-0.0416,-0.0422,-0.0534,-0.0378,-0.0372,-0.0504,-0.0432,0,0,0,0,0]}],[{"header":{"parameterUnit":"m.s-1","parameterCategory":2,"la1":30.2991,"la2":30.254,"lo1":-89.0895,"lo2":-89.0444,"dy":0.0017,"dx":0.0017,"nx":28,"ny":28,"refTime":"2025-08-02T09:00:00:Z","depth":"4","parameterNumber":2,"parameterNumberName":"U-component_of_CURRENTS"},"data":[0,0,0,0,0,0,0,0,0,0,0,0,0,0,0,0,0,0,0,0,0,0,0,0,0,0,0,0,0,0,0,0,0,0,0,0,0,0,0,0,0,0,0,0,0,0,0,0,0,0,0,0,0,0,0,0,0,0,0.0226,0.0226,0,0.0172,0.0171,0.017,0.0149,0.0149,0.0149,0.0149,0.0106,0.0104,0.0103,0,0,0,0,0,0,0,0,0,0,0,0,0,0.0253,0.0253,0.0226,0.0226,0.0225,0.0172,0.0171,0.017,0.0148,0.0149,0.0149,0.015,0.0106,0.0104,0.0103,0,0,0,0,0,0,0,0,0,0,0,0,0,0.0223,0.0253,0.0227,0.021,0.0208,0.0172,0.0171,0.017,0.0148,0.0149,0.0149,0.015,0.0107,0.0104,0.0102,0.0079,0,0,0.0096,0.0095,0,0,0,0,0,0,0,0,0.0224,0.0221,0.0213,0.0211,0.0208,0.0169,0.0164,0.0141,0.0148,0.0169,0.0149,0.015,0.0129,0.0125,0.0111,0.0077,0.0076,0.0095,0.0094,0.0093,0.0093,0,0,0,0,0,0,0,0.0227,0.0223,0.0203,0.0212,0.021,0.0184,0.0181,0.0159,0.0146,0.0167,0.0166,0.0163,0.0127,0.0113,0.0109,0.0075,0.0095,0.0094,0.0092,0.0091,0.0062,0.0063,0,0,0,0,0,0,0.024,0.0226,0.0205,0.0201,0.022,0.0184,0.018,0.018,0.0146,0.0141,0.0162,0.0162,0.0116,0.0112,0.0108,0.0116,0.0093,0.0091,0.009,0.0062,0.0062,0.0063,0,0,0,0,0,0,0.024,0.0238,0.0207,0.0213,0.0208,0.0184,0.0183,0.0178,0.0175,0.0142,0.0138,0.0165,0.0116,0.0111,0.0095,0.0113,0.009,0.0088,0.0061,0.0062,0.0063,0.0108,0,0,0,0,0,0,0.0241,0.0239,0.0241,0.0215,0.0208,0.0193,0.0183,0.0177,0.0172,0.0171,0.0143,0.0138,0.0116,0.0099,0.0093,0.0109,0.0086,0.006,0.0061,0.0062,0.0106,0.0111,0.0114,0,0,0,0,0,0.0243,0.0247,0.0242,0.0239,0.0213,0.0194,0.0188,0.017,0.0172,0.0169,0.0151,0.014,0.0102,0.0097,0.009,0.0106,0.006,0.0061,0.0062,0.0104,0.011,0.0114,0,0,0,0,0,0,0.0256,0.0245,0.0238,0.0238,0.0221,0.0191,0.0189,0.0178,0.016,0.0165,0.0137,0.0131,0.0127,0.0108,0.0104,0.0102,0.0083,0.0083,0.0117,0.0122,0.0126,0.0138,0.0085,0,0,0,0,0,0.0262,0.0266,0.0244,0.0245,0.0241,0.0218,0.0209,0.0197,0.0179,0.0172,0.0153,0.0137,0.0124,0.0117,0.0099,0.0091,0.0082,0.0101,0.0105,0.0108,0.0115,0.0107,0.0111,0.0067,0.0067,0.0067,0,0,0.0263,0.0262,0.0261,0.0249,0.0237,0.0228,0.0214,0.0207,0.02,0.017,0.0162,0.0149,0.0125,0.0119,0.0116,0.0107,0.0118,0.011,0.0113,0.0117,0.0109,0.0113,0.0117,0.0068,0.0068,0.0067,0,0,0.0271,0.0275,0.0277,0.0268,0.0257,0.0244,0.0247,0.0224,0.0218,0.0206,0.0189,0.0184,0.016,0.0147,0.0137,0.0153,0.014,0.0155,0.0185,0.0178,0.0181,0.0185,0.0188,0.0191,0.0158,0.0158,0.0158,0,0.0273,0.0275,0.0272,0.0272,0.0268,0.0256,0.0252,0.0241,0.0216,0.0212,0.0214,0.0187,0.0174,0.0163,0.0178,0.0163,0.0161,0.0168,0.0184,0.0186,0.0189,0.0192,0.0194,0.016,0.016,0.016,0.0159,0,0.0275,0.0278,0.0282,0.0281,0.0277,0.0274,0.0263,0.026,0.0261,0.0247,0.0243,0.0223,0.0211,0.0212,0.0204,0.0215,0.021,0.0189,0.0172,0.0196,0.0198,0.02,0.0163,0.0163,0.0162,0.0161,0,0,0.0266,0.028,0.028,0.0286,0.0283,0.0281,0.0282,0.0273,0.0276,0.0265,0.0263,0.026,0.0259,0.025,0.0238,0.024,0.0267,0.0235,0.0233,0.0241,0.0265,0.0305,0.031,0.0251,0.0252,0.0252,0.0263,0,0.0264,0.0277,0.0279,0.0286,0.0292,0.0289,0.0291,0.0286,0.0284,0.028,0.027,0.0268,0.0269,0.0275,0.0278,0.0261,0.0273,0.0267,0.0238,0.0238,0.0272,0.0314,0.0253,0.0265,0.0265,0.0265,0.0266,0,0.0257,0.027,0.0284,0.0301,0.0302,0.0306,0.0316,0.0314,0.0306,0.0306,0.0305,0.0294,0.0299,0.0298,0.0294,0.0291,0.0296,0.0285,0.0285,0.0308,0.0282,0.0232,0.0269,0.0269,0.0268,0.0268,0.0268,0,0.026,0.0271,0.0291,0.0294,0.0308,0.0317,0.0325,0.0324,0.0325,0.0327,0.0334,0.0322,0.0331,0.0319,0.0323,0.031,0.0319,0.0286,0.0324,0.0326,0.0264,0.026,0.0297,0.0297,0.0297,0.0297,0.0297,0,0.0258,0.0269,0.0298,0.0307,0.0322,0.0334,0.0345,0.0349,0.0353,0.0357,0.0357,0.0362,0.0342,0.0343,0.0331,0.0348,0.0327,0.0346,0.0338,0.0284,0.0282,0.0266,0.0262,0.0298,0.0298,0.0297,0.0297,0,0.0252,0.0272,0.029,0.0317,0.0325,0.0337,0.0354,0.0355,0.0377,0.0383,0.0391,0.0399,0.0417,0.0401,0.0388,0.0376,0.0368,0.0383,0.0348,0.0334,0.0374,0.0373,0.0412,0.0413,0.0415,0.0416,0.0417,0,0.0251,0.0263,0.0295,0.0299,0.0311,0.033,0.0334,0.0359,0.0363,0.0405,0.0405,0.0443,0.0449,0.0456,0.0445,0.0434,0.0433,0.0424,0.0389,0.0402,0.0389,0.0385,0.0381,0.0419,0.0419,0.042,0.042,0,0.0237,0.0253,0.0264,0.028,0.029,0.0298,0.0317,0.0329,0.0363,0.0386,0.0423,0.0444,0.0477,0.0473,0.0492,0.0472,0.0416,0.0437,0.0434,0.0401,0.0411,0.0396,0.0391,0.0425,0.0424,0.0424,0.0423,0,0.0218,0.0217,0.0235,0.0243,0.0255,0.0264,0.0283,0.0308,0.0329,0.039,0.0404,0.0447,0.0475,0.0497,0.0497,0.0505,0.0489,0.0455,0.045,0.0444,0.0453,0.0471,0.0512,0,0,0,0,0,0.0192,0.0185,0.0193,0.0204,0.0219,0.0231,0.0262,0.0284,0.0335,0.0358,0.0386,0.0421,0.0463,0.048,0.0494,0.0509,0.0482,0.0524,0.0436,0.0451,0.0446,0.0455,0,0,0,0,0,0,0.0168,0.0171,0.0178,0.0172,0.0178,0.0193,0.0217,0.0256,0.0278,0.0334,0.0356,0.0403,0.044,0.045,0.0485,0.0493,0.0434,0.0555,0.0555,0.0455,0.045,0.0445,0.0453,0,0,0,0,0]},{"header":{"parameterUnit":"m.s-1","parameterCategory":2,"la1":30.2991,"la2":30.254,"lo1":-89.0895,"lo2":-89.0444,"dy":0.0017,"dx":0.0017,"nx":28,"ny":28,"refTime":"2025-08-02T09:00:00:Z","depth":"4","parameterNumber":3,"parameterNumberName":"V-component_of_CURRENTS"},"data":[0,0,0,0,0,0,0,0,0,0,0,0,0,0,0,0,0,0,0,0,0,0,0,0,0,0,0,0,0,0,0,0,0,0,0,0,0,0,0,0,0,0,0,0,0,0,0,0,0,0,0,0,0,0,0,0,0,0,-0.0188,-0.0188,0,-0.015,-0.015,-0.0149,-0.0182,-0.0184,-0.0185,-0.0186,-0.0199,-0.0198,-0.0197,0,0,0,0,0,0,0,0,0,0,0,0,0,-0.0294,-0.0292,-0.0188,-0.0188,-0.0187,-0.015,-0.015,-0.0149,-0.0182,-0.0184,-0.0185,-0.0186,-0.0199,-0.0198,-0.0197,0,0,0,0,0,0,0,0,0,0,0,0,0,-0.0253,-0.0291,-0.0189,-0.0197,-0.0197,-0.015,-0.015,-0.0149,-0.0182,-0.0184,-0.0185,-0.0187,-0.0199,-0.0198,-0.0197,-0.0156,0,0,-0.0194,-0.0194,0,0,0,0,0,0,0,0,-0.0256,-0.025,-0.0197,-0.0196,-0.0197,-0.0171,-0.0192,-0.0153,-0.0181,-0.019,-0.0186,-0.0188,-0.0191,-0.0191,-0.0183,-0.0157,-0.0158,-0.0194,-0.0193,-0.0193,-0.0193,0,0,0,0,0,0,0,-0.0258,-0.0252,-0.0176,-0.0196,-0.0196,-0.0204,-0.02,-0.0184,-0.0185,-0.019,-0.0191,-0.0183,-0.0192,-0.0184,-0.0183,-0.0158,-0.0194,-0.0193,-0.0192,-0.0192,-0.0178,-0.0178,0,0,0,0,0,0,-0.0256,-0.0254,-0.0177,-0.0174,-0.0228,-0.02,-0.0197,-0.0179,-0.0184,-0.0185,-0.0181,-0.0184,-0.0185,-0.0185,-0.0184,-0.02,-0.0193,-0.0192,-0.0191,-0.0178,-0.0178,-0.0178,0,0,0,0,0,0,-0.0258,-0.0249,-0.0178,-0.0212,-0.0204,-0.0197,-0.0177,-0.0177,-0.0177,-0.0176,-0.0179,-0.0182,-0.0186,-0.0186,-0.0169,-0.0198,-0.0191,-0.019,-0.0177,-0.0178,-0.0178,-0.019,0,0,0,0,0,0,-0.0261,-0.0249,-0.0237,-0.0211,-0.0201,-0.0142,-0.0175,-0.0175,-0.0167,-0.0172,-0.0177,-0.018,-0.0187,-0.0171,-0.0168,-0.0197,-0.019,-0.0177,-0.0178,-0.0178,-0.019,-0.0191,-0.0192,0,0,0,0,0,-0.0265,-0.0227,-0.0236,-0.0227,-0.0183,-0.014,-0.0135,-0.0139,-0.0166,-0.015,-0.0161,-0.018,-0.0174,-0.0168,-0.0166,-0.0195,-0.0177,-0.0177,-0.0178,-0.0189,-0.0191,-0.0192,0,0,0,0,0,0,-0.0253,-0.0226,-0.0236,-0.019,-0.0168,-0.0145,-0.0127,-0.0136,-0.0131,-0.0144,-0.0159,-0.016,-0.0168,-0.0166,-0.016,-0.0194,-0.0188,-0.0188,-0.0197,-0.0199,-0.02,-0.0237,-0.0189,0,0,0,0,0,-0.0247,-0.022,-0.0197,-0.0159,-0.015,-0.0144,-0.013,-0.0132,-0.0123,-0.0124,-0.0131,-0.0147,-0.0164,-0.0168,-0.0171,-0.0166,-0.0191,-0.0191,-0.0192,-0.0193,-0.0222,-0.0269,-0.0278,-0.018,-0.018,-0.018,0,0,-0.023,-0.0211,-0.0196,-0.0156,-0.0145,-0.0143,-0.014,-0.0112,-0.013,-0.0124,-0.0143,-0.0143,-0.0162,-0.0172,-0.0178,-0.0176,-0.0228,-0.0194,-0.0195,-0.0224,-0.0271,-0.0281,-0.029,-0.0181,-0.0181,-0.0181,0,0,-0.0197,-0.0171,-0.0155,-0.0143,-0.0123,-0.0122,-0.0117,-0.0101,-0.0113,-0.0107,-0.0135,-0.0149,-0.0147,-0.0183,-0.02,-0.0206,-0.0233,-0.0208,-0.0247,-0.0291,-0.03,-0.0309,-0.0331,-0.0341,-0.0211,-0.0211,-0.0211,0,-0.0188,-0.0172,-0.0139,-0.0134,-0.0141,-0.0122,-0.0133,-0.0128,-0.0114,-0.0135,-0.0117,-0.0166,-0.0167,-0.0229,-0.0235,-0.0216,-0.0234,-0.0237,-0.0295,-0.0304,-0.0313,-0.0334,-0.0345,-0.0212,-0.0212,-0.0211,-0.0211,0,-0.0163,-0.0161,-0.0145,-0.0154,-0.0146,-0.0137,-0.0142,-0.0143,-0.0155,-0.0168,-0.0206,-0.0201,-0.0246,-0.0242,-0.0238,-0.031,-0.0299,-0.029,-0.0294,-0.0324,-0.0343,-0.0355,-0.0213,-0.0212,-0.0212,-0.0212,0,0,-0.0137,-0.0136,-0.0139,-0.0162,-0.0167,-0.0155,-0.0186,-0.0214,-0.0243,-0.024,-0.0289,-0.0317,-0.0324,-0.0346,-0.0347,-0.0375,-0.0429,-0.0358,-0.0359,-0.0386,-0.0516,-0.0417,-0.042,-0.0428,-0.043,-0.0433,-0.0497,0,-0.0149,-0.0157,-0.016,-0.019,-0.0205,-0.0216,-0.0242,-0.0263,-0.0276,-0.0303,-0.0335,-0.0364,-0.0364,-0.0374,-0.0414,-0.0422,-0.0465,-0.0412,-0.048,-0.0482,-0.0397,-0.0433,-0.0441,-0.0506,-0.0509,-0.0511,-0.0512,0,-0.0155,-0.0163,-0.0199,-0.0232,-0.0239,-0.0259,-0.0311,-0.0327,-0.0368,-0.0375,-0.043,-0.0437,-0.0503,-0.0471,-0.056,-0.0524,-0.0541,-0.0538,-0.0541,-0.0463,-0.0406,-0.0476,-0.0533,-0.0532,-0.053,-0.0529,-0.0527,0,-0.0177,-0.0199,-0.0237,-0.0248,-0.0274,-0.0306,-0.0325,-0.0363,-0.0366,-0.043,-0.0422,-0.0519,-0.0524,-0.0597,-0.059,-0.0591,-0.0645,-0.0649,-0.0588,-0.058,-0.0645,-0.0635,-0.0732,-0.0732,-0.0732,-0.0732,-0.0732,0,-0.0204,-0.0234,-0.025,-0.0269,-0.0302,-0.0324,-0.0357,-0.0385,-0.0406,-0.0398,-0.0465,-0.0456,-0.055,-0.0572,-0.0614,-0.062,-0.0682,-0.0615,-0.0601,-0.0642,-0.0632,-0.0651,-0.0641,-0.0734,-0.0734,-0.0733,-0.0733,0,-0.0234,-0.0246,-0.0278,-0.0309,-0.0315,-0.0341,-0.0344,-0.035,-0.0378,-0.0368,-0.0382,-0.0416,-0.0448,-0.0511,-0.0585,-0.0608,-0.0646,-0.063,-0.065,-0.0632,-0.0557,-0.0547,-0.0623,-0.062,-0.0618,-0.0616,-0.0614,0,-0.0255,-0.0277,-0.0296,-0.0291,-0.0309,-0.0328,-0.0324,-0.0344,-0.033,-0.0318,-0.03,-0.0323,-0.0347,-0.0386,-0.0468,-0.0566,-0.0559,-0.0598,-0.062,-0.0573,-0.0552,-0.0545,-0.0538,-0.0611,-0.061,-0.0609,-0.0609,0,-0.0293,-0.0299,-0.0311,-0.0295,-0.0293,-0.0277,-0.0272,-0.0249,-0.0247,-0.0259,-0.0214,-0.0241,-0.0252,-0.0332,-0.038,-0.0451,-0.0596,-0.0575,-0.0582,-0.0603,-0.0559,-0.0539,-0.0535,-0.0601,-0.0602,-0.0603,-0.0603,0,-0.0315,-0.0312,-0.0306,-0.0289,-0.0272,-0.0232,-0.0231,-0.0193,-0.0178,-0.016,-0.0134,-0.0169,-0.0201,-0.0267,-0.0316,-0.0371,-0.0408,-0.0449,-0.0463,-0.0473,-0.0397,-0.0318,-0.0291,0,0,0,0,0,-0.033,-0.0304,-0.0288,-0.0257,-0.0235,-0.0225,-0.0189,-0.018,-0.0161,-0.0115,-0.0123,-0.0129,-0.0181,-0.0212,-0.0252,-0.0299,-0.0433,-0.0349,-0.0492,-0.0557,-0.0566,-0.0493,0,0,0,0,0,0,-0.0331,-0.0315,-0.0286,-0.0233,-0.0208,-0.0177,-0.0156,-0.0141,-0.0113,-0.0102,-0.0128,-0.014,-0.0201,-0.0161,-0.0255,-0.0272,-0.0366,-0.0382,-0.0382,-0.0552,-0.056,-0.0567,-0.0495,0,0,0,0,0]}]]